Wind_Speed
20 17 14 13 14 15 15 13 12 12 11 9 9 11 11 10 10 9 9 9 9 9 9 9 9 9 10 10 11 12 14 15 15 16 17 18 19 18 17 15 14 13
18 15 14 14 16 15 13 12 12 11 10 9 9 10 9 9 9 8 7 8 7 7 8 8 8 8 9 9 9 9 10 12 13 13 15 16 17 17 17 16 15 15
16 14 14 16 17 14 13 14 13 11 9 9 9 9 8 8 8 7 7 6 6 7 8 9 9 8 9 9 8 8 8 9 11 11 12 14 15 15 16 15 15 15
15 14 16 17 16 14 16 17 14 11 10 9 9 8 7 7 7 7 7 6 6 8 9 10 10 9 10 10 9 8 6 7 8 9 10 12 12 13 13 14 15 16
15 16 18 18 16 17 19 17 14 12 11 9 8 7 6 6 7 7 8 7 7 8 9 10 10 10 11 11 12 11 8 6 7 9 10 10 10 10 10 11 13 15
16 17 19 18 18 19 19 16 14 14 13 11 9 7 5 5 5 6 6 6 6 7 8 9 9 11 12 13 14 14 11 8 8 10 11 10 9 9 9 10 12 14
17 18 19 18 18 18 17 16 14 13 12 12 10 8 7 7 7 7 7 7 6 6 7 8 9 10 11 12 14 16 14 10 8 9 10 9 9 9 8 9 11 14
17 19 18 17 17 17 16 15 13 11 10 11 12 11 12 12 12 13 13 11 8 6 6 6 8 9 10 11 13 15 14 11 8 9 9 9 10 10 8 8 11 14
18 19 18 17 17 17 16 14 13 10 8 9 10 11 13 14 14 16 15 13 11 9 7 7 7 8 8 9 11 12 12 11 9 9 9 10 10 11 10 9 11 15
19 19 18 17 17 16 14 12 10 8 7 8 8 8 9 10 11 13 13 12 11 10 9 8 7 7 7 7 7 9 10 10 9 9 9 10 10 10 11 11 13 16
19 19 19 18 16 15 12 10 8 7 6 6 5 5 5 6 7 8 9 9 9 9 8 7 7 6 6 5 5 6 7 8 9 9 9 10 10 10 10 12 14 15
19 19 18 17 15 13 11 9 8 7 6 5 4 3 3 3 3 3 4 5 6 7 6 6 6 5 5 5 4 4 5 7 7 8 9 9 10 11 11 12 14 14
18 17 17 16 14 13 11 10 9 8 6 5 5 4 3 3 2 1 0 2 3 4 5 5 5 5 5 5 5 5 5 6 7 7 8 9 10 11 11 11 13 14
17 17 16 16 14 13 11 10 9 8 7 6 5 4 3 3 2 0 1 2 2 3 4 4 4 5 5 5 6 6 6 7 8 8 9 9 9 10 11 11 12 13
17 17 15 14 13 12 11 9 8 8 7 6 5 3 2 2 2 1 1 2 2 3 3 4 4 4 5 6 6 7 7 7 8 8 9 10 9 10 10 10 11 13
18 16 15 13 12 11 11 10 8 7 5 5 5 3 2 1 1 0 1 2 2 3 4 4 4 5 5 6 7 8 8 8 8 8 9 10 10 10 11 10 11 13
18 17 15 14 12 12 11 10 7 5 4 4 4 3 2 1 1 1 2 4 4 5 5 5 6 5 5 6 7 9 9 8 9 9 9 10 9 10 10 10 10 13
19 18 17 16 14 12 11 9 7 5 5 5 4 3 1 2 3 3 4 5 7 7 7 7 7 7 7 7 7 8 9 9 9 9 10 10 10 10 10 9 9 12
21 20 19 18 14 11 10 9 8 5 5 4 3 1 1 3 4 4 5 5 7 8 9 9 8 8 9 9 9 8 9 10 10 10 10 10 10 10 9 7 8 11
22 21 20 18 15 12 11 10 8 6 4 2 1 1 3 4 5 6 6 6 7 9 10 10 9 9 10 10 10 10 9 10 11 11 11 11 10 10 8 6 7 9
21 20 20 18 15 13 11 10 8 6 4 2 1 2 5 6 7 8 8 8 8 9 10 11 10 10 10 10 10 10 10 11 11 11 11 11 10 8 7 5 6 7
21 19 19 18 16 14 12 10 8 6 4 4 3 5 6 8 9 10 10 9 9 9 10 11 10 10 9 9 10 10 10 11 11 11 11 11 10 8 6 5 6 6
21 19 18 18 17 15 13 10 8 6 5 5 5 7 8 9 10 10 9 10 10 10 10 12 12 10 9 9 10 9 9 10 10 10 10 11 10 8 6 5 6 6
21 19 18 17 16 15 14 11 8 8 7 6 7 8 9 9 9 9 10 10 11 10 11 13 13 11 10 10 10 9 9 8 9 9 10 10 10 9 7 6 6 7
21 18 17 16 14 14 13 11 9 8 7 6 7 8 9 9 8 9 10 10 11 11 12 13 13 12 10 10 9 9 8 8 8 9 10 10 10 10 9 8 7 7
20 18 16 14 12 11 10 9 8 7 6 6 7 8 9 9 9 9 11 11 12 13 14 14 14 12 10 9 9 8 8 7 7 9 10 10 10 10 10 10 9 8
Wind_Direction
147 146 142 136 137 139 137 133 123 119 118 112 102 98 98 88 77 76 72 68 66 60 56 51 44 42 41 42 50 55 55 52 53 58 58 55 54 53 52 51 51 52
145 144 141 139 141 141 138 135 128 123 121 115 111 108 104 90 82 84 80 73 67 52 43 40 38 39 35 34 43 51 53 53 52 55 56 54 53 51 49 47 46 46
144 144 144 144 145 144 140 134 126 122 119 119 120 116 107 92 82 85 87 81 67 48 37 33 33 31 26 30 41 47 50 53 52 54 55 54 53 51 49 45 44 42
144 145 145 144 144 143 139 132 123 120 118 119 122 118 108 96 87 86 87 81 64 54 47 41 38 38 38 42 48 48 48 51 56 58 56 55 53 50 48 44 42 40
147 148 146 140 138 141 139 131 121 117 111 109 118 121 112 103 97 90 84 77 66 57 52 49 50 50 51 52 52 50 50 56 64 61 55 54 49 43 41 38 38 37
152 152 148 140 138 141 139 130 122 115 107 102 109 115 113 111 108 98 83 73 66 59 53 53 52 52 52 52 52 52 53 59 66 58 49 47 40 32 31 33 35 32
154 154 151 145 143 144 142 135 130 123 113 103 100 100 101 101 99 90 73 60 55 49 49 50 45 47 51 50 51 53 53 57 60 48 42 38 28 21 24 27 27 24
156 156 154 153 151 148 145 143 139 135 127 112 101 96 93 92 87 78 68 59 52 42 41 43 38 41 45 46 49 51 51 52 50 37 32 29 23 20 21 19 15 14
160 159 157 156 154 149 146 146 145 145 143 130 113 99 93 90 83 74 68 62 58 49 41 35 31 34 36 37 43 46 46 46 42 32 26 24 23 23 22 14 8 9
162 162 161 160 157 151 146 144 145 147 150 148 132 111 99 91 80 71 66 62 59 53 45 34 27 29 28 28 35 39 42 41 35 28 23 21 21 21 19 11 6 6
163 162 163 163 160 155 148 138 134 135 139 144 139 122 110 95 80 71 64 59 56 50 44 33 21 17 16 17 21 26 33 35 31 24 17 16 16 14 13 10 7 3
166 165 166 167 164 156 147 135 131 136 140 140 133 122 114 92 74 70 59 51 49 44 39 30 15 2 0 0 357 360 8 16 21 18 9 5 3 3 4 6 6 0
168 168 168 166 161 151 140 129 125 129 130 130 128 120 101 69 46 48 337 1 18 23 20 18 10 355 345 343 340 335 334 343 352 356 355 353 351 352 355 0 2 359
161 162 163 160 155 148 140 131 125 123 122 123 126 124 103 70 54 115 249 291 325 345 346 348 352 347 336 330 327 323 321 327 334 335 336 338 338 341 348 357 359 357
156 156 158 158 158 154 149 147 140 132 126 121 115 107 98 89 84 142 243 268 282 305 318 317 319 324 328 328 322 315 314 321 329 333 330 327 327 329 337 353 357 356
161 161 161 163 168 168 165 162 152 139 127 115 102 83 79 111 118 133 256 275 283 292 304 312 309 304 308 318 318 313 312 314 318 325 328 325 324 322 325 344 356 355
171 173 172 172 173 172 171 168 158 147 133 122 106 79 82 159 208 294 299 301 300 299 307 318 321 316 305 300 304 309 313 313 310 313 320 326 328 322 319 334 352 356
178 180 178 176 174 172 173 175 171 156 132 119 105 89 118 205 248 282 297 300 299 299 306 316 321 323 317 304 297 300 306 312 311 308 312 323 332 330 321 327 348 357
180 184 182 178 179 183 184 183 180 166 139 119 103 113 218 252 257 270 291 300 301 303 306 309 312 317 320 312 301 295 296 305 311 309 308 316 330 335 326 322 342 356
182 186 187 185 186 191 191 186 185 179 161 140 108 202 252 264 260 269 286 297 303 306 303 301 303 309 315 313 306 297 289 295 306 310 308 311 323 334 330 319 332 353
185 187 190 191 190 192 193 190 188 185 175 176 214 256 262 269 273 278 284 289 300 303 299 298 301 304 309 310 309 304 289 286 298 308 310 311 319 332 331 317 321 345
189 190 193 194 192 193 196 194 195 195 193 209 244 270 273 278 284 285 283 285 292 296 296 300 303 304 306 307 310 309 294 283 291 303 310 311 316 328 330 314 311 327
191 194 198 198 195 196 198 201 206 208 207 220 254 276 279 284 292 291 282 278 283 290 298 305 307 306 306 306 308 309 298 285 284 295 307 311 313 319 323 316 307 308
195 196 199 200 197 198 202 207 209 207 211 231 262 280 283 288 295 292 279 272 277 288 299 308 310 308 306 305 305 305 302 291 282 285 299 310 312 312 312 313 306 297
198 195 195 196 195 196 200 202 200 202 218 246 266 279 287 293 295 287 278 275 281 290 298 306 310 309 305 301 301 301 302 296 280 278 291 305 311 309 306 307 306 295
198 193 192 192 193 196 197 196 198 206 227 254 270 282 290 292 289 284 282 284 290 295 299 304 310 311 304 297 297 300 301 295 278 275 289 301 306 307 306 304 306 299
Height
848 850 851 852 853 854 855 856 857 857 858 858 859 859 860 860 860 859 859 859 858 858 858 858 857 857 856 856 855 854 854 853 852 851 851 850 849 848 847 846 845 845
848 850 852 852 854 855 856 857 858 858 859 859 859 860 860 860 860 860 860 859 859 859 859 859 858 858 857 856 856 855 854 854 853 853 852 851 850 849 848 848 847 846
849 851 852 853 854 856 857 858 858 859 859 860 860 861 861 861 861 861 860 860 860 860 860 860 859 858 857 857 856 855 855 855 854 854 853 852 852 851 850 849 848 847
850 852 853 854 855 856 857 858 859 859 860 860 861 861 861 862 862 861 861 861 861 861 861 860 860 859 858 857 856 856 855 855 855 855 855 854 853 852 851 850 849 848
851 853 854 855 856 857 858 859 859 859 860 861 861 862 862 862 862 862 862 862 862 862 861 861 860 859 859 858 857 857 856 856 856 856 856 855 854 854 852 851 850 849
852 853 854 856 857 858 859 859 860 860 860 861 862 862 863 863 863 863 862 862 862 862 862 861 861 860 860 859 859 858 858 857 857 857 856 856 855 854 853 852 851 850
852 854 855 857 858 859 860 859 860 861 861 862 862 863 863 863 863 863 863 863 863 863 862 862 862 861 861 860 860 859 859 858 858 858 857 857 856 855 854 853 852 851
853 855 856 857 858 859 860 860 860 861 861 863 863 863 864 864 864 864 863 863 863 863 863 862 862 862 861 861 861 860 860 859 859 859 858 857 856 855 854 853 853 851
853 855 856 858 859 859 860 860 860 861 862 863 864 864 865 865 865 864 864 864 864 864 863 863 863 862 862 862 861 861 861 860 860 859 858 858 857 856 855 854 853 851
854 856 857 858 859 860 860 860 861 861 862 863 864 864 865 865 865 865 865 865 865 865 864 864 863 863 863 862 862 862 861 861 860 860 859 858 857 856 855 854 853 852
855 856 857 858 859 860 860 861 861 861 862 863 864 865 865 865 865 865 866 866 866 865 865 864 864 863 863 863 863 862 862 861 861 860 859 858 857 856 856 855 854 852
855 856 858 859 860 860 860 861 861 862 862 863 864 864 865 865 865 866 866 866 866 866 865 865 864 864 863 863 863 863 862 862 861 860 859 858 858 857 856 855 854 853
855 857 858 859 860 860 860 861 861 862 862 863 863 864 864 865 865 866 866 866 866 866 866 865 865 864 864 863 863 863 862 862 861 860 860 859 858 857 857 856 855 853
855 857 858 859 859 860 860 860 861 862 862 862 863 863 864 864 865 866 866 866 867 866 866 866 865 864 864 863 863 863 862 862 861 860 860 859 858 857 857 856 855 854
856 857 857 858 859 859 860 860 861 861 862 862 862 863 863 864 865 866 866 866 867 866 866 866 865 865 864 863 863 862 862 861 861 860 860 859 858 857 857 856 855 854
856 856 857 858 858 859 860 860 861 861 861 862 862 862 863 864 865 866 866 866 866 866 866 865 865 864 864 863 863 862 862 861 860 860 859 859 858 857 857 856 855 854
855 856 857 858 858 859 859 860 860 860 861 861 862 862 863 864 865 866 866 866 866 866 865 865 864 864 863 863 862 862 861 861 860 860 859 858 858 857 856 856 855 854
854 855 856 857 857 858 858 859 860 860 860 861 861 862 863 864 865 865 865 866 865 865 865 864 864 863 863 863 862 862 861 860 860 859 858 858 857 856 856 855 855 853
853 854 855 856 856 857 858 858 859 859 860 861 861 862 863 864 865 865 865 865 864 864 864 863 863 863 862 862 861 861 861 860 859 859 858 858 857 856 856 855 854 854
851 852 854 855 855 857 857 858 859 859 860 861 861 862 863 864 864 864 864 864 864 864 863 863 863 862 862 861 861 860 860 859 859 858 857 857 857 856 855 855 854 854
850 851 853 854 855 856 856 857 858 859 859 860 861 862 863 863 864 864 863 863 863 863 862 862 862 861 861 860 859 859 859 858 858 857 857 857 856 856 855 854 854 853
850 851 852 853 854 855 856 857 857 858 859 860 860 861 862 862 863 863 863 863 862 862 862 861 861 860 860 859 859 858 858 857 857 857 856 856 855 855 854 854 854 853
849 850 851 852 853 854 855 856 857 858 858 859 860 861 861 861 862 862 862 862 861 861 861 860 860 859 859 858 858 857 856 856 856 856 855 855 855 854 854 853 853 853
848 850 851 852 853 853 854 856 856 857 858 858 859 860 860 860 861 860 861 861 860 860 860 859 859 858 858 857 857 856 855 855 855 855 855 854 854 853 853 853 852 852
848 849 850 851 852 853 854 855 856 856 857 858 858 859 859 859 860 859 860 860 859 859 859 858 858 857 857 856 856 855 854 854 854 854 854 853 853 852 852 852 851 851
848 849 850 851 852 853 853 854 855 856 856 857 857 858 858 858 858 858 858 858 858 858 858 857 857 856 855 855 854 854 854 853 853 853 853 852 852 851 851 851 850 850